Flag for Germany Weather past 2 weeks in Geesthacht, Schleswig-Holstein, Germany

Now
55 °F

Light fog.


Feels Like: 55 °F
Forecast: 55 / 63 °F
Wind: 2 mph from North

Location: Hamburg-Fuhlsbuettel

Current Time: Sep 20, 2014 at 6:11:12 AM

Latest Report: Sep 20, 2014 at 5:20 AM


Visibility: N/A

Pressure: 29.92 "Hg

Humidity: 100%

Dew point: 55 °F

Location of GeesthachtLocation

Historic Weather in Geesthacht — Graph

°F

Geesthacht temperature yesterday

Maximum temperature yesterday: 75 °F (at 3:20 PM)
Minimum temperature yesterday: 57 °F (at 2:50 AM)
Average temperature yesterday: 65 °F

Past Weeks' High & Low Weather Summary

 TemperatureHumidityPressure
High79 °F (Sep 5, 3:50 PM)100% (Sep 6, 11:20 PM)30.24 "Hg (Sep 6, 11:20 PM)
Low48 °F (Sep 12, 5:20 AM)49% (Sep 8, 1:50 PM)29.86 "Hg (Sep 6, 2:50 PM)
Average63 °F83%30.04 "Hg
* Reported Sep 5 4:20 AM — Sep 20 4:50 AM, Geesthacht, Weather by CustomWeather, © 2014

Note: Actual official high and low records may vary slightly from our data, if they occured in-between our weather recording intervals... More about our weather records

Advertising

Geesthacht weather history for previous 24 hours

 ConditionsComfort  
Time TempWeatherWind HumidityBarometerVisibility
4:50 AM
Sep 20
55 °FLight fog.2 mph100%29.92 "HgN/A
4:20 AM55 °FLight fog.3 mph100%29.92 "HgN/A
3:20 AM55 °FFog.2 mph94%29.92 "HgN/A
2:50 AM57 °FFog.1 mph94%29.92 "HgN/A
2:20 AM57 °FFog.2 mph94%29.92 "HgN/A
1:50 AM57 °FFog.2 mph100%29.92 "HgN/A
1:20 AM59 °FFog.2 mph94%29.92 "HgN/A
12:50 AM59 °FFog.1 mph94%29.92 "HgN/A
12:20 AM59 °FClear.2 mph94%29.92 "Hg10 mi
11:20 PM
Sep 19
61 °FClear.1 mph88%29.92 "Hg10 mi
10:50 PM63 °FClear.2 mph83%29.92 "Hg10 mi
10:20 PM63 °FPassing clouds.3 mph83%29.92 "HgN/A
9:50 PM63 °FClear.5 mph88%29.92 "Hg10 mi
9:20 PM63 °FClear.6 mph83%29.92 "Hg10 mi
8:50 PM66 °FClear.8 mph78%29.92 "Hg10 mi
8:20 PM66 °FPartly sunny.9 mph78%29.92 "HgN/A
7:50 PM68 °FPassing clouds.8 mph78%29.89 "HgN/A
7:20 PM70 °FPassing clouds.8 mph73%29.89 "HgN/A
6:50 PM73 °FPassing clouds.6 mph57%29.89 "HgN/A
6:20 PM73 °FPassing clouds.8 mph57%29.89 "HgN/A
5:50 PM73 °FPassing clouds.7 mph61%29.89 "HgN/A
5:20 PM73 °FPassing clouds.6 mph57%29.89 "HgN/A
4:50 PM75 °FPassing clouds.7 mph54%29.89 "HgN/A
4:20 PM75 °FPassing clouds.8 mph54%29.89 "HgN/A
3:50 PM73 °FPassing clouds.6 mph57%29.89 "HgN/A
3:20 PM75 °FPassing clouds.2 mph54%29.89 "HgN/A
2:50 PM73 °FScattered clouds.6 mph61%29.89 "HgN/A
2:20 PM73 °FPassing clouds.6 mph61%29.89 "HgN/A
1:50 PM73 °FPassing clouds.6 mph57%29.89 "HgN/A
1:20 PM73 °FPassing clouds.6 mph57%29.89 "HgN/A
12:50 PM72 °FPassing clouds.7 mph61%29.92 "HgN/A
12:20 PM72 °FPassing clouds.5 mph65%29.92 "HgN/A
11:50 AM70 °FPassing clouds.6 mph69%29.92 "HgN/A
11:20 AM68 °FPassing clouds.7 mph73%29.92 "HgN/A
10:50 AM66 °FPassing clouds.6 mph78%29.92 "HgN/A
10:20 AM64 °FPassing clouds.6 mph78%29.92 "HgN/A
9:50 AM63 °FPassing clouds.5 mph83%29.92 "HgN/A
9:20 AM61 °FSunny.6 mph88%29.92 "Hg10 mi
8:50 AM61 °FSunny.6 mph83%29.92 "Hg10 mi
8:20 AM59 °FSunny.5 mph88%29.92 "Hg10 mi
7:50 AM57 °FPassing clouds.3 mph88%29.92 "HgN/A
7:20 AM57 °FClear.3 mph88%29.92 "Hg10 mi
6:50 AM59 °FPassing clouds.3 mph88%29.89 "HgN/A
6:20 AM59 °FPassing clouds.3 mph88%29.89 "HgN/A
Weather by CustomWeather, © 2014

See weather overviewHow to use our weather pages